Clarksdale Fletcher Field Air, MS

11:54 AM CST on November 15, 2019 (GMT -0600)
Fletcher

Weather History for KCKM - September, 2019

Change the Weather History Date:

Tuesday, September 24, 2019

  Actual Average (WUND) Record (WUND)
Temperature  
Mean Temperature 79 °F -  
Max Temperature 89 °F - - (-1)
Min Temperature 69 °F - - (-1)
Cooling Degree Days 14    
Growing Degree Days 29 (Base 50)    
Moisture  
Dew Point 67 °F    
Average Humidity 71    
Maximum Humidity 100    
Minimum Humidity 45    
Precipitation  
Precipitation 0.00 in - - ()
Sea Level Pressure  
Sea Level Pressure 29.95 in    
Wind  
Wind Speed 2 mph ()    
Max Wind Speed 14 mph    
Max Gust Speed 18 mph    
Visibility 9.9 miles    
Events      
Averages and records for this station are not official NWS values.
T = Trace of Precipitation, MM = Missing Value Source: Averaged Metar Reports

Daily Weather History Graph

Daily Weather History Graph

Search for Another Location

Airport or City:

Astronomy

Sep. 24, 2019 Rise Set
Actual Time 6:51 AM CDT 6:56 PM CDT
Civil Twilight 6:26 AM CDT 7:21 PM CDT
Nautical Twilight 5:57 AM CDT 7:50 PM CDT
Astronomical Twilight 5:27 AM CDT 8:19 PM CDT
Moon 1:52 AM CDT (9/24) 4:27 PM CDT (9/24)
Length of Visible Light 12h 54m
Length of Day
12h 04m
Waning Crescent, 23% of the Moon is Illuminated
Sep 24
Waning Crescent
Sep 28
New
Oct 5
First Quarter
Oct 13
Full
Oct 21
Last Quarter

Hourly Weather History & Observations

Time (CDT) Temp. Heat Index Dew Point Humidity Pressure Visibility Wind Dir Wind Speed Gust Speed Precip Events Conditions
12:35 AM 73.4 °F - 73.4 °F 100% 30.00 in 10.0 mi Calm Calm - N/A   Unknown
12:55 AM 71.6 °F - 71.6 °F 100% 30.00 in 10.0 mi Calm Calm - N/A   Unknown
1:15 AM 71.6 °F - 71.6 °F 100% 30.00 in 10.0 mi Calm Calm - N/A   Unknown
1:35 AM 71.6 °F - 71.6 °F 100% 30.00 in 10.0 mi Calm Calm - N/A   Unknown
1:55 AM 71.6 °F - 71.6 °F 100% 30.00 in 10.0 mi Calm Calm - N/A   Unknown
2:15 AM 71.6 °F - 71.6 °F 100% 29.99 in 10.0 mi Calm Calm - N/A   Unknown
2:35 AM 71.6 °F - 71.6 °F 100% 29.99 in 10.0 mi Calm Calm - N/A   Unknown
2:55 AM 71.6 °F - 71.6 °F 100% 29.99 in 10.0 mi Calm Calm - N/A   Unknown
3:15 AM 71.6 °F - 71.6 °F 100% 30.00 in 10.0 mi Calm Calm - N/A   Unknown
3:35 AM 71.6 °F - 71.6 °F 100% 29.99 in 10.0 mi Calm Calm - N/A   Unknown
3:55 AM 73.4 °F - 73.4 °F 100% 29.99 in 10.0 mi Calm Calm - N/A   Unknown
6:15 AM 73.4 °F - 71.6 °F 94% 30.01 in 10.0 mi NE 5.8 mph - N/A   Unknown
6:55 AM 71.6 °F - 69.8 °F 94% 30.01 in 10.0 mi Calm Calm - N/A   Unknown
7:15 AM 71.6 °F - 68.0 °F 88% 30.01 in 10.0 mi ENE 5.8 mph - N/A   Unknown
7:35 AM 71.6 °F - 68.0 °F 88% 30.01 in 10.0 mi Calm Calm - N/A   Unknown
7:55 AM 73.4 °F - 68.0 °F 83% 30.01 in 10.0 mi Calm Calm - N/A   Unknown
8:15 AM 73.4 °F - 68.0 °F 83% 30.01 in - Calm Calm - N/A   Unknown
8:35 AM 75.2 °F - 68.0 °F 78% 30.02 in 10.0 mi NE 6.9 mph - N/A   Unknown
8:55 AM 75.2 °F - 66.2 °F 73% 30.02 in 10.0 mi ENE 6.9 mph - N/A   Unknown
9:15 AM 77.0 °F - 66.2 °F 69% 30.02 in 10.0 mi ENE 6.9 mph - N/A   Unknown
9:35 AM 77.0 °F - 66.2 °F 69% 30.02 in 10.0 mi East 4.6 mph - N/A   Unknown
10:15 AM 80.6 °F 82.7 °F 66.2 °F 61% 30.02 in 10.0 mi ENE 5.8 mph - N/A   Unknown
10:35 AM 82.4 °F 84.6 °F 66.2 °F 58% 30.02 in 10.0 mi East 6.9 mph - N/A   Unknown
10:55 AM 84.2 °F 86.6 °F 66.2 °F 55% 30.02 in 10.0 mi Calm Calm - N/A   Unknown
11:15 AM 84.2 °F 86.6 °F 66.2 °F 55% 30.02 in 10.0 mi Calm Calm - N/A   Unknown
11:35 AM 86.0 °F 88.2 °F 66.2 °F 51% 30.01 in 10.0 mi NE 5.8 mph - N/A   Unknown
11:55 AM 86.0 °F 89.4 °F 68.0 °F 55% 30.01 in 10.0 mi Calm Calm - N/A   Unknown
12:15 PM 87.8 °F 92.6 °F 69.8 °F 55% 30.00 in 10.0 mi Calm Calm - N/A   Unknown
12:35 PM 87.8 °F 92.6 °F 69.8 °F 55% 29.99 in 10.0 mi Calm Calm - N/A   Unknown
12:55 PM 87.8 °F 92.6 °F 69.8 °F 55% 29.98 in 10.0 mi Calm Calm - N/A   Unknown
1:15 PM 87.8 °F 91.4 °F 68.0 °F 52% 29.97 in 10.0 mi Calm Calm - N/A   Unknown
1:35 PM 89.6 °F 94.7 °F 69.8 °F 52% 29.96 in 10.0 mi Calm Calm - N/A   Unknown
1:55 PM 86.0 °F 89.4 °F 68.0 °F 55% 29.96 in 10.0 mi NW 10.4 mph - N/A   Unknown
2:15 PM 87.8 °F 89.4 °F 64.4 °F 46% 29.95 in 10.0 mi NW 12.7 mph - N/A   Unknown
2:35 PM 86.0 °F 87.3 °F 64.4 °F 48% 29.95 in 10.0 mi North 12.7 mph 18.4 mph N/A   Unknown
2:55 PM 87.8 °F 89.4 °F 64.4 °F 46% 29.94 in - NNW 13.8 mph - N/A   Unknown
3:15 PM 86.0 °F 88.2 °F 66.2 °F 51% 29.93 in 10.0 mi North 13.8 mph - N/A   Unknown
3:35 PM 87.8 °F 89.4 °F 64.4 °F 46% 29.92 in 10.0 mi North 10.4 mph 18.4 mph N/A   Unknown
3:55 PM 87.8 °F 89.4 °F 64.4 °F 46% 29.93 in 10.0 mi North 11.5 mph - N/A   Unknown
4:15 PM 84.2 °F 85.6 °F 64.4 °F 51% 29.92 in 10.0 mi North 11.5 mph 17.3 mph N/A   Unknown
4:35 PM 84.2 °F 85.0 °F 62.6 °F 48% 29.92 in 10.0 mi NNE 10.4 mph - N/A   Unknown
4:55 PM 84.2 °F 85.0 °F 62.6 °F 48% 29.91 in 10.0 mi NE 9.2 mph - N/A   Unknown
5:15 PM 84.2 °F 85.0 °F 62.6 °F 48% 29.91 in 10.0 mi NNE 8.1 mph - N/A   Unknown
5:35 PM 84.2 °F 85.0 °F 62.6 °F 48% 29.90 in 8.0 mi NE 6.9 mph - N/A   Unknown
5:55 PM 84.2 °F 85.0 °F 62.6 °F 48% 29.90 in 10.0 mi Calm Calm - N/A   Unknown
6:15 PM 84.2 °F 85.0 °F 62.6 °F 48% 29.89 in 9.0 mi Calm Calm - N/A   Unknown
6:35 PM 84.2 °F 84.4 °F 60.8 °F 45% 29.88 in 9.0 mi Calm Calm - N/A   Unknown
6:55 PM 82.4 °F 83.4 °F 62.6 °F 51% 29.88 in 10.0 mi Calm Calm - N/A   Unknown
7:15 PM 78.8 °F - 64.4 °F 61% 29.88 in 9.0 mi Calm Calm - N/A   Unknown
7:35 PM 78.8 °F - 64.4 °F 61% 29.88 in 10.0 mi Calm Calm - N/A   Unknown
7:55 PM 78.8 °F - 64.4 °F 61% 29.88 in 10.0 mi Calm Calm - N/A   Unknown
8:15 PM 75.2 °F - 69.8 °F 83% 29.89 in 10.0 mi Calm Calm - N/A   Unknown
8:35 PM 73.4 °F - 69.8 °F 88% 29.89 in 10.0 mi Calm Calm - N/A   Unknown
8:55 PM 73.4 °F - 68.0 °F 83% 29.90 in 10.0 mi Calm Calm - N/A   Unknown
9:15 PM 71.6 °F - 68.0 °F 88% 29.91 in 10.0 mi Calm Calm - N/A   Unknown
9:35 PM 73.4 °F - 68.0 °F 83% 29.90 in - Calm Calm - N/A   Unknown
9:55 PM 73.4 °F - 66.2 °F 78% 29.90 in 9.0 mi Calm Calm - N/A   Unknown
10:15 PM 71.6 °F - 68.0 °F 88% 29.89 in 10.0 mi Calm Calm - N/A   Unknown
10:35 PM 71.6 °F - 66.2 °F 83% 29.89 in 10.0 mi Calm Calm - N/A   Unknown
10:55 PM 69.8 °F - 66.2 °F 88% 29.89 in 10.0 mi Calm Calm - N/A   Unknown
11:15 PM 71.6 °F - 64.4 °F 78% 29.89 in 10.0 mi Calm Calm - N/A   Unknown
11:35 PM 71.6 °F - 64.4 °F 78% 29.89 in 10.0 mi Calm Calm - N/A   Unknown
11:55 PM 71.6 °F - 62.6 °F 73% 29.89 in 10.0 mi Calm Calm - N/A   Unknown